Wind_Speed
19 18 18 18 18 18 19 19 18 18 18 18 18 18 19 19 19 20 20 20 20 20 21 22 23 24 24 25 25 26 27 28 29 29 30 31 32 31 31 33 33 34 34
19 18 18 18 18 19 19 19 18 17 17 17 17 17 17 18 19 19 20 20 20 20 20 21 21 23 24 25 25 26 26 27 27 28 29 30 31 31 32 32 33 35 36
19 19 19 19 18 19 19 19 19 18 17 17 16 17 18 18 19 19 19 18 18 19 19 19 20 20 21 23 23 24 25 26 26 27 28 30 31 31 32 33 33 34 35
19 19 18 18 18 19 19 19 19 18 17 16 17 18 18 19 18 18 18 17 18 18 19 18 19 19 20 22 22 23 24 25 25 26 27 28 30 30 31 31 32 33 34
19 18 17 17 17 18 18 18 18 17 16 16 17 18 18 17 17 18 18 18 18 18 18 18 18 19 20 21 21 22 23 24 25 25 26 27 28 29 30 30 31 30 32
19 18 18 18 18 18 18 17 17 16 16 17 17 17 18 18 18 18 18 18 18 18 17 17 18 19 20 21 21 22 23 24 24 24 25 26 26 28 29 29 29 29 30
19 19 19 18 18 18 17 17 17 18 18 18 18 18 18 18 18 19 18 18 18 17 16 17 18 19 19 20 21 22 22 23 22 23 24 24 25 26 27 28 28 28 28
19 19 19 19 18 17 17 17 18 18 18 18 19 18 19 19 19 19 19 19 19 18 17 17 18 18 18 19 20 20 21 21 22 22 22 23 24 25 25 26 27 27 28
19 20 20 20 18 18 18 18 18 19 19 19 19 19 20 20 20 20 19 19 18 17 17 18 18 18 18 18 18 20 20 21 22 22 22 23 23 23 23 25 26 27 27
20 20 20 20 19 18 18 19 19 19 20 20 20 20 21 21 20 19 19 18 18 18 18 18 18 18 18 17 18 19 19 20 21 22 22 22 23 23 23 23 24 24 25
21 20 21 20 19 19 19 20 20 20 21 21 21 21 21 21 20 19 19 18 18 18 18 18 17 17 17 17 18 18 18 19 20 20 21 21 22 22 23 23 23 24 25
21 21 21 21 21 20 20 20 21 21 22 22 22 22 21 21 20 20 19 19 19 18 18 18 18 18 18 18 18 18 19 20 20 20 20 21 21 22 22 23 23 23 24
21 22 22 22 22 21 21 21 22 22 22 22 22 22 21 20 20 19 19 19 19 19 18 18 19 19 19 19 19 19 19 20 20 20 20 21 21 21 22 22 23 23 23
21 21 22 23 23 22 22 21 21 22 22 22 22 21 20 19 19 19 19 19 19 19 20 20 20 20 21 20 20 20 20 20 20 20 21 21 21 21 21 22 23 22 22
22 23 23 23 23 22 22 22 22 22 22 22 21 20 20 19 19 19 19 20 20 21 21 21 21 21 22 22 21 21 21 21 21 21 20 20 20 20 20 20 21 21 22
23 23 23 23 23 23 22 22 22 22 22 22 21 21 20 20 20 20 21 21 21 22 22 22 22 22 22 22 22 21 21 21 20 20 20 20 20 19 19 19 19 20 21
23 23 23 23 23 23 23 22 22 21 22 22 21 21 21 21 21 21 21 22 22 23 23 23 22 22 22 22 21 21 21 21 20 19 19 19 19 18 18 18 18 19 20
24 24 24 24 24 24 23 23 22 22 22 21 21 22 22 22 21 22 22 22 23 23 23 23 23 22 22 22 21 21 21 21 20 19 18 18 17 16 16 16 17 17 17
25 25 24 24 24 24 24 23 22 22 22 22 22 22 22 22 22 22 22 22 23 24 24 24 23 23 22 22 21 21 20 20 19 18 17 17 16 16 16 15 16 16 16
24 24 23 24 24 23 23 23 22 22 21 21 20 21 21 21 21 22 23 23 23 23 23 23 23 23 22 21 20 20 19 18 18 17 16 16 15 15 15 15 15 16 16
23 23 23 24 23 23 23 22 22 21 20 20 20 20 21 21 22 22 23 23 22 22 22 22 22 21 20 20 19 19 18 18 17 16 16 15 15 15 15 15 15 15 15
23 23 23 22 23 23 22 22 21 21 21 21 21 21 21 21 22 23 22 22 22 22 22 22 21 21 20 20 19 18 17 16 16 15 15 15 15 15 14 14 14 13 13
22 22 21 22 22 22 22 21 20 20 20 20 20 20 21 21 22 22 22 22 22 22 21 21 20 20 19 18 17 17 16 15 15 14 14 14 13 13 12 12 12 12 12
21 21 21 21 22 21 20 20 19 19 19 19 19 19 20 20 21 21 21 21 21 21 20 20 19 19 18 17 16 16 15 14 14 12 11 11 11 10 10 10 10 10 10
21 21 21 21 21 20 18 18 18 18 18 18 18 18 19 19 19 20 21 20 20 20 19 19 18 17 17 17 16 15 14 13 12 11 10 9 9 9 9 8 9 9 9
19 19 19 19 18 18 18 18 17 17 17 17 17 18 18 18 19 20 20 20 20 20 19 18 17 17 17 17 16 15 14 12 11 10 9 8 8 7 7 7 7 7 7
Wind_Direction
325 327 327 325 324 324 323 321 316 310 308 308 308 307 307 306 304 302 298 293 290 287 283 279 275 271 267 267 265 262 261 259 258 257 256 254 252 251 252 251 251 251 251
324 325 325 324 324 325 324 323 319 315 313 312 312 313 314 313 310 307 302 297 293 290 287 284 279 273 269 268 267 263 262 262 260 258 257 254 253 253 253 252 252 254 253
324 323 323 323 323 325 324 322 321 318 316 314 313 313 315 315 312 309 306 304 300 296 292 287 282 278 273 270 267 264 263 262 262 260 258 256 254 255 255 255 255 255 252
324 322 322 322 322 324 324 323 322 321 319 317 315 314 315 316 315 313 311 308 305 300 294 288 283 281 278 274 271 269 267 265 264 263 260 259 257 257 257 256 257 257 254
327 324 322 323 322 323 324 324 324 323 322 320 318 316 315 315 315 314 311 309 305 301 295 289 285 281 280 277 274 272 270 267 265 264 262 260 260 260 257 257 257 257 254
328 326 323 321 321 322 325 328 327 326 324 322 322 321 318 316 315 315 314 312 308 303 298 292 291 287 283 281 279 276 274 269 266 264 264 263 261 262 261 259 259 258 256
330 328 325 322 321 322 324 324 325 325 324 323 323 321 321 320 319 317 315 313 310 308 301 296 295 292 288 284 281 279 277 272 268 266 265 266 265 266 264 263 262 261 259
330 328 326 323 322 322 322 322 322 323 324 324 323 321 320 320 320 320 317 314 310 306 303 300 299 296 292 287 284 281 280 275 272 268 268 269 269 269 266 263 262 263 261
327 328 327 325 321 320 321 320 321 323 323 323 323 321 320 319 318 318 318 315 311 308 305 303 302 300 297 293 289 286 283 278 273 270 268 269 268 268 267 264 261 262 261
324 326 326 326 322 319 320 319 320 321 321 321 321 320 320 320 318 317 317 316 314 312 310 308 306 302 300 298 294 291 288 284 279 275 272 270 269 267 267 264 262 261 262
321 322 323 324 322 318 318 316 316 317 318 319 319 319 320 320 319 319 318 317 315 314 311 309 307 305 304 303 300 295 292 290 285 279 276 274 271 268 267 265 264 263 264
319 319 320 320 320 317 314 314 314 315 316 316 316 317 317 318 318 318 318 319 318 316 313 310 308 307 306 302 300 297 295 294 291 285 280 278 274 271 268 266 265 264 263
318 318 318 318 318 317 315 315 313 313 314 314 313 314 315 315 316 316 316 315 315 316 315 313 311 311 309 304 299 298 297 295 292 287 284 281 277 273 268 265 264 263 263
313 315 317 317 317 317 316 314 313 313 315 316 317 316 316 317 317 317 316 316 316 316 317 315 313 311 310 307 302 297 296 295 294 290 287 283 279 275 271 267 265 262 261
314 315 316 317 317 317 316 315 313 313 314 314 315 314 314 315 315 316 316 315 315 314 315 315 314 312 309 307 303 299 296 295 294 292 288 286 283 277 271 268 264 262 262
313 314 313 315 315 315 314 314 312 311 310 311 313 313 313 314 314 314 315 315 315 315 314 315 314 312 310 307 304 301 298 297 295 294 291 288 284 277 272 270 267 265 265
312 312 311 312 314 315 315 313 312 311 310 311 312 313 312 312 313 314 315 316 316 316 315 314 314 312 309 308 307 304 301 299 297 296 294 290 285 280 274 270 267 267 266
311 312 311 311 312 314 315 313 312 311 309 309 310 311 312 310 311 313 314 315 315 316 315 314 313 312 311 309 308 305 303 301 299 296 294 290 283 279 276 271 268 266 266
308 309 310 310 310 313 314 313 313 311 309 308 309 310 311 311 310 311 314 314 314 314 314 314 314 314 313 311 309 307 304 303 301 297 294 291 285 281 278 274 270 268 267
308 309 310 311 311 313 315 315 314 312 311 310 310 311 312 313 313 314 315 315 315 315 315 315 315 315 314 312 310 308 306 302 301 297 292 290 287 283 279 276 273 269 267
305 307 309 310 311 314 316 316 315 313 311 312 312 311 312 314 315 317 319 320 320 320 320 319 319 318 316 314 310 307 304 302 302 300 295 291 288 287 282 277 273 270 267
303 305 308 311 312 313 314 316 315 312 311 311 311 313 314 316 317 319 321 323 324 324 323 322 320 318 317 315 312 309 307 306 304 301 296 292 290 288 285 279 273 272 270
302 305 307 310 313 314 315 315 314 311 311 311 313 315 316 317 318 319 322 325 325 325 326 325 323 322 320 318 316 314 311 307 304 299 295 293 291 290 287 280 274 271 269
299 303 306 309 312 314 315 315 313 311 311 313 315 318 319 320 320 322 325 326 327 328 329 328 326 325 324 323 321 318 314 311 308 305 298 294 293 290 287 282 278 276 275
298 301 304 307 311 313 315 316 316 315 315 315 316 319 321 322 322 324 326 327 329 331 332 330 329 330 329 327 325 323 320 318 314 310 303 299 295 291 286 281 279 279 281
299 301 304 307 309 311 312 314 315 317 318 317 318 320 321 321 322 325 326 327 329 330 332 333 331 329 329 329 328 327 326 324 322 318 312 305 301 295 288 281 278 280 283
Height
5781 5778 5774 5771 5768 5765 5762 5758 5755 5752 5750 5747 5745 5742 5740 5737 5734 5731 5729 5727 5725 5724 5722 5721 5720 5719 5719 5719 5718 5718 5719 5719 5721 5721 5722 5723 5725 5726 5727 5728 5730 5731 5732
5778 5775 5771 5768 5765 5762 5758 5755 5752 5749 5746 5743 5741 5738 5735 5732 5729 5727 5724 5722 5719 5717 5716 5714 5713 5712 5711 5711 5711 5711 5711 5711 5712 5712 5713 5714 5716 5717 5718 5719 5720 5721 5723
5775 5771 5768 5765 5762 5758 5755 5751 5748 5745 5742 5739 5737 5734 5731 5728 5725 5722 5719 5716 5714 5711 5709 5707 5706 5704 5704 5703 5703 5702 5702 5702 5703 5704 5704 5705 5706 5707 5708 5710 5711 5712 5713
5772 5768 5765 5762 5758 5755 5752 5748 5745 5742 5739 5736 5733 5730 5727 5724 5721 5718 5714 5712 5709 5706 5704 5701 5700 5698 5697 5696 5696 5695 5694 5694 5694 5695 5696 5696 5697 5698 5699 5700 5701 5702 5703
5769 5765 5762 5759 5755 5752 5749 5745 5742 5739 5736 5733 5730 5727 5723 5720 5717 5713 5710 5707 5704 5701 5698 5696 5694 5692 5691 5690 5689 5688 5687 5686 5686 5686 5687 5688 5689 5689 5690 5691 5691 5692 5693
5765 5762 5759 5756 5753 5749 5746 5742 5739 5736 5733 5730 5726 5723 5719 5716 5713 5709 5705 5702 5699 5696 5693 5691 5688 5686 5684 5683 5681 5680 5679 5679 5679 5679 5679 5680 5681 5680 5681 5681 5682 5683 5684
5763 5759 5756 5753 5749 5746 5743 5739 5736 5733 5729 5726 5722 5719 5716 5712 5708 5705 5701 5697 5694 5691 5688 5686 5683 5680 5678 5676 5675 5673 5672 5671 5671 5671 5671 5671 5672 5672 5672 5673 5673 5673 5675
5760 5757 5753 5750 5746 5743 5740 5736 5733 5729 5726 5722 5719 5715 5712 5708 5704 5700 5697 5693 5690 5686 5683 5681 5678 5675 5673 5670 5668 5667 5666 5665 5664 5664 5664 5664 5664 5664 5664 5664 5664 5665 5666
5757 5754 5750 5746 5743 5740 5736 5733 5730 5726 5723 5719 5715 5712 5708 5704 5700 5696 5692 5688 5685 5682 5679 5675 5673 5670 5667 5665 5663 5661 5659 5658 5657 5657 5656 5656 5656 5656 5656 5656 5656 5656 5657
5754 5750 5747 5743 5740 5736 5733 5729 5726 5723 5719 5716 5712 5708 5704 5700 5695 5691 5688 5684 5681 5678 5674 5671 5668 5665 5662 5660 5658 5656 5654 5652 5651 5650 5649 5649 5649 5648 5648 5648 5648 5648 5649
5750 5747 5744 5740 5736 5733 5729 5726 5722 5719 5715 5711 5707 5703 5699 5695 5691 5687 5684 5680 5677 5673 5670 5667 5663 5661 5658 5655 5653 5651 5648 5647 5645 5644 5643 5642 5641 5641 5641 5640 5640 5640 5641
5747 5743 5740 5736 5732 5729 5725 5722 5718 5714 5711 5707 5703 5699 5695 5691 5687 5683 5679 5676 5672 5669 5666 5662 5659 5656 5654 5651 5648 5646 5643 5641 5639 5638 5636 5635 5634 5634 5633 5633 5633 5632 5632
5743 5739 5735 5732 5728 5724 5720 5717 5713 5710 5706 5702 5698 5695 5691 5687 5683 5679 5676 5672 5669 5665 5662 5658 5655 5651 5648 5646 5643 5640 5638 5635 5633 5631 5630 5628 5627 5626 5625 5625 5625 5625 5624
5738 5734 5730 5727 5723 5719 5715 5712 5708 5704 5701 5697 5693 5690 5686 5683 5679 5675 5672 5668 5665 5661 5657 5654 5650 5647 5643 5640 5637 5635 5632 5629 5627 5625 5623 5621 5620 5619 5618 5617 5617 5617 5617
5733 5729 5725 5722 5718 5714 5710 5707 5703 5700 5696 5692 5689 5685 5682 5679 5675 5671 5667 5664 5660 5657 5653 5649 5645 5642 5638 5635 5632 5629 5626 5624 5621 5618 5616 5614 5613 5611 5610 5610 5609 5609 5609
5728 5724 5720 5717 5713 5709 5705 5702 5698 5694 5691 5687 5684 5680 5677 5674 5670 5666 5662 5659 5655 5651 5647 5644 5640 5636 5633 5629 5626 5623 5620 5617 5614 5612 5610 5608 5606 5604 5603 5603 5602 5602 5602
5722 5718 5715 5711 5708 5704 5700 5696 5693 5689 5686 5682 5679 5675 5672 5668 5665 5661 5658 5654 5650 5646 5642 5638 5634 5631 5627 5624 5620 5617 5614 5611 5608 5605 5603 5601 5599 5598 5597 5596 5595 5595 5595
5716 5712 5708 5705 5702 5698 5694 5690 5687 5684 5681 5677 5674 5670 5667 5663 5660 5656 5653 5649 5645 5641 5637 5633 5629 5625 5621 5617 5614 5611 5607 5604 5602 5599 5597 5595 5593 5592 5591 5590 5590 5589 5589
5709 5706 5702 5699 5696 5692 5688 5684 5681 5678 5675 5672 5668 5665 5661 5658 5654 5651 5647 5643 5639 5635 5631 5627 5623 5619 5615 5611 5607 5604 5601 5598 5595 5593 5591 5589 5588 5586 5585 5585 5584 5583 5583
5702 5699 5696 5693 5690 5686 5682 5679 5675 5672 5669 5666 5663 5659 5656 5652 5649 5645 5641 5638 5633 5629 5625 5621 5616 5612 5608 5605 5601 5598 5595 5592 5590 5587 5586 5584 5582 5581 5580 5579 5578 5578 5577
5696 5693 5690 5687 5683 5680 5677 5673 5670 5666 5663 5660 5657 5654 5650 5647 5644 5640 5636 5632 5627 5623 5619 5615 5610 5606 5603 5599 5595 5592 5589 5587 5584 5582 5580 5578 5577 5575 5574 5573 5573 5572 5572
5689 5686 5684 5681 5678 5674 5671 5668 5664 5661 5658 5655 5652 5649 5645 5642 5638 5635 5631 5626 5622 5617 5613 5609 5605 5601 5597 5594 5590 5587 5584 5581 5579 5577 5575 5573 5572 5571 5569 5569 5568 5568 5567
5683 5680 5678 5675 5672 5669 5665 5662 5659 5656 5653 5650 5647 5644 5641 5637 5633 5629 5625 5621 5617 5612 5608 5604 5599 5596 5592 5588 5585 5582 5579 5577 5575 5572 5571 5569 5568 5567 5565 5565 5564 5564 5564
5676 5674 5672 5669 5666 5663 5659 5656 5654 5651 5648 5645 5642 5639 5635 5632 5628 5624 5621 5616 5612 5608 5603 5599 5595 5591 5587 5584 5581 5578 5575 5572 5570 5568 5566 5565 5564 5563 5562 5561 5561 5560 5560
5670 5668 5665 5663 5660 5657 5654 5651 5648 5646 5643 5640 5637 5634 5631 5627 5624 5620 5616 5612 5608 5604 5599 5595 5591 5588 5584 5581 5577 5574 5571 5568 5566 5564 5562 5561 5560 5559 5558 5558 5558 5557 5557
5663 5661 5659 5656 5654 5651 5649 5646 5643 5641 5638 5635 5633 5630 5627 5623 5620 5616 5612 5608 5604 5600 5596 5592 5588 5584 5581 5577 5574 5571 5568 5565 5563 5561 5559 5558 5557 5556 5555 5555 5555 5555 5554